Regional Weather Roundup
Issued by NWS

Home | Current Version | Previous Version | Graphics & Text | Print | Product List | Glossary Off
Versions: 1 2 3 4 5 6 7 8 9 10 11 12 13 14 15 16 17 18 19 20 21 22 23 24 25 26 27 28 29 30 31 32 33 34 35 36 37 38 39 40 41 42 43 44 45 46 47 48 49 50

000
ASUS43 KDMX 011507
RWRIA

WEATHER ROUNDUP FOR IOWA
NATIONAL WEATHER SERVICE DES MOINES IA
1000 AM CDT MON SEP 01 2014

NOTE: "FAIR" INDICATES FEW OR NO CLOUDS BELOW 12,000 FEET WITH NO
SIGNIFICANT WEATHER AND/OR OBSTRUCTIONS TO VISIBILITY.

* - THESE STATIONS ARE NOT NWS STATIONS...THUS NOT UNDER NWS
QUALITY CONTROL.  THEY ALSO DO NOT REPORT WEATHER SUCH
AS PRECIPITATION OR FOG.

IAZ001>003-012>014-020>022-031>034-043>046-011600-
   NORTHWEST IOWA

CITY           SKY/WX    TMP DP  RH WIND       PRES   REMARKS
CARROLL *      MOSUNNY   70  64  83 W10       29.78S
CHEROKEE *     PTSUNNY   66  64  94 NW9       29.79R
DENISON *      CLOUDY    66  64  94 W7G13     29.80R
LE MARS *      MOSUNNY   68  63  83 W8        29.82R
ORANGE CITY *  MOSUNNY   68  63  83 W8        29.81R
SHELDON *      CLOUDY    66  63  88 NW8       29.79R
SIOUX CITY     CLOUDY    67  63  87 NW7       29.81R
SPENCER        PTSUNNY   69  63  81 NW9       29.79R
STORM LAKE *   MOSUNNY   66  66 100 NW12      29.80R
$$

IAZ055>058-069>071-079>083-090>094-011600-
   SOUTHWEST IOWA

CITY           SKY/WX    TMP DP  RH WIND       PRES   REMARKS
ATLANTIC *     MOSUNNY   70  64  83 W10       29.81R
AUDUBON *      MOSUNNY   72  68  88 W3        29.81R
CLARINDA *     CLOUDY    72  66  83 SW10G17   29.85S
COUNCIL BLFS * MOSUNNY   70  66  88 NW8       29.83R
CRESTON *      CLOUDY    70  66  88 SW15G23   29.83R
HARLAN  *      PTSUNNY   68  64  88 W13       29.85R
LAMONI         CLOUDY    70  64  81 SW17      29.85R
RED OAK *      PTSUNNY   72  66  83 W9G15     29.83R
SHENANDOAH *   SUNNY     72  64  78 W10G18    29.85R
$$

IAZ047>049-059>061-072>074-084-011600-
   CENTRAL IOWA

CITY           SKY/WX    TMP DP  RH WIND       PRES   REMARKS
AMES           CLOUDY    71  66  84 SW14      29.77R
ANKENY *       CLOUDY    72  66  83 W12G18    29.78R
CHARITON *     CLOUDY    72  66  83 SW15G25   29.82R
DES MOINES     MOSUNNY   73  66  78 W17       29.78R
GRINNELL*      PTSUNNY   72  66  83 SW17G23   29.78R
KNOXVILLE *    CLOUDY    72  64  78 SW14G22   29.79R
MARSHALLTOWN   CLOUDY    71  67  87 W14       29.76R
PELLA *        PTSUNNY   73  66  78 W9G17     29.80R
PERRY *        CLOUDY    72  68  88 W9        29.78R
$$

IAZ004>006-015-016-023>025-035-036-011600-
   NORTH CENTRAL IOWA

CITY           SKY/WX    TMP DP  RH WIND       PRES   REMARKS
ALGONA *       PTSUNNY   70  66  88 W12       29.77R
CLARION *      CLOUDY    68  66  94 W8        29.75R
ESTHERVILLE    MOSUNNY   67  63  87 NW6       29.76S
FORT DODGE *   CLOUDY    70  64  83 SW6       29.77R
MASON CITY     CLOUDY    69  65  86 W7        29.74R
FOREST CITY *  CLOUDY    70  68  94 W6        29.74R
IOWA FALLS *   CLOUDY    70  66  88 SW10      29.76R
$$

IAZ007>011-017>019-026>030-037>042-050>054-066-011600-
   NORTHEAST IOWA

CITY           SKY/WX    TMP DP  RH WIND       PRES   REMARKS
CEDAR RAPIDS   PTSUNNY   72  67  84 SW14G23   29.76R
CHARLES CITY * CLOUDY    68  66  94 W10       29.73R
CLINTON *      MOSUNNY   72  64  78 W8        29.80S
DECORAH *      CLOUDY    66  64  94 VRB5G13   29.70S
DUBUQUE        PTSUNNY   70  65  84 SW15      29.75S
MONTICELLO *   PTSUNNY   73  66  78 W13G23    29.75R
OELWEIN *      CLOUDY    68  66  94 SW13      29.75R
WATERLOO       CLOUDY    71  66  84 W12       29.72R
$$

IAZ064-065-067-068-078-011600-
   EAST CENTRAL IOWA

CITY           SKY/WX    TMP DP  RH WIND       PRES   REMARKS
DAVENPORT      MOSUNNY   72  65  78 W14       29.78S
IOWA CITY      MOSUNNY   72  65  78 W15G23    29.78R
MT. PLEASANT * PTSUNNY   75  64  69 W9G16     29.80S
MUSCATINE *    MOSUNNY   75  66  73 W14G23    29.79R
QUAD CITIES    SUNNY     74  66  76 W8        29.77S
$$

IAZ062-063-075>077-085>089-095>099-011600-
   SOUTHEAST IOWA

CITY           SKY/WX    TMP DP  RH WIND       PRES   REMARKS
BURLINGTON     LGT RAIN  73  66  78 W9        29.79S
FAIRFIELD *    MOSUNNY   72  64  78 W10G20    29.81S
FORT MADISON * MOSUNNY   73  66  78 W12G17    29.81R
KEOKUK *       PTSUNNY   72  66  83 W13G18    29.80R
OSKALOOSA *    CLOUDY    70  66  88 W14       29.80S
CENTERVILLE *  PTSUNNY   72  66  83 SW14G22   29.85R
OTTUMWA        CLOUDY    70  64  81 W13       29.80R
WASHINGTON *   PTSUNNY   73  66  78 W16G22    29.80R
$$

ABBREVIATIONS USED IN REMARKS
   TC - TEMPERATURES IN CELSIUS
  WCI - WIND CHILL INDEX
   HX - HEAT INDEX
  VSB - VISIBILITY
$$



USA.gov is the U.S. government's official web portal to all federal, state and local government web resources and services.